When you browse on this site, cookies collect data to enhance your experience and personalize the content and advertising you see.
Visit our Privacy Policy to learn more. By continuing to use the site, you agree to this use of cookies and data.
  • In Romania
  • List of Countries
  • For 7 days
  • Water Temperature
  • Weather Map
  • Weather Widgets
  • user-avatar
    Login

    Hourly Weather Banfora

    Today, 15 September, Sunday

    Time Temperature Precipitation Wind Pressure Humidity
    00:00 +24°C° 0 mm 0 mps 734 mmHg 89%
    01:00 +26°C° 0.2 mm 1 mps 733 mmHg 91%
    02:00 +25°C° 0.2 mm 1 mps 733 mmHg 92%
    03:00 +25°C° 0.2 mm 1 mps 733 mmHg 93%
    04:00 +25°C° 0.3 mm 1 mps 733 mmHg 94%
    05:00 +25°C° 0.3 mm 1 mps 733 mmHg 95%
    06:00 +24°C° 0 mm 1 mps 733 mmHg 96%
    07:00 +25°C° 0 mm 2 mps 734 mmHg 94%
    08:00 +26°C° 0 mm 2 mps 734 mmHg 92%
    09:00 +27°C° 0 mm 2 mps 734 mmHg 90%
    10:00 +28°C° 0 mm 2 mps 734 mmHg 86%
    11:00 +29°C° 0 mm 2 mps 734 mmHg 82%
    12:00 +30°C° 0 mm 2 mps 733 mmHg 77%
    13:00 +31°C° 0 mm 2 mps 733 mmHg 72%
    14:00 +32°C° 0 mm 1 mps 732 mmHg 68%
    15:00 +31°C° 0 mm 0 mps 731 mmHg 63%
    16:00 +30°C° 0.7 mm 0 mps 731 mmHg 69%
    17:00 +28°C° 0.7 mm 0 mps 731 mmHg 75%
    18:00 +27°C° 0.7 mm 0 mps 731 mmHg 81%
    19:00 +26°C° 0.7 mm 0 mps 732 mmHg 83%
    20:00 +26°C° 0.7 mm 0 mps 733 mmHg 84%
    21:00 +25°C° 0.7 mm 0 mps 733 mmHg 85%
    22:00 +25°C° 0 mm 0 mps 733 mmHg 86%
    23:00 +24°C° 0 mm 0 mps 733 mmHg 87%

    Tomorrow, 16 September, Monday

    Time Temperature Precipitation Wind Pressure Humidity
    00:00 +24°C° 0 mm 0 mps 733 mmHg 88%
    01:00 +26°C° 0.7 mm 1 mps 733 mmHg 88%
    02:00 +26°C° 0.7 mm 1 mps 732 mmHg 89%
    03:00 +26°C° 0.7 mm 1 mps 732 mmHg 90%
    04:00 +25°C° 0 mm 2 mps 732 mmHg 91%
    05:00 +25°C° 0 mm 2 mps 732 mmHg 93%
    06:00 +25°C° 0 mm 2 mps 732 mmHg 95%
    07:00 +26°C° 0 mm 2 mps 733 mmHg 91%
    08:00 +26°C° 0 mm 1 mps 733 mmHg 87%
    09:00 +27°C° 0 mm 1 mps 734 mmHg 83%
    10:00 +29°C° 0 mm 1 mps 734 mmHg 77%
    11:00 +30°C° 0 mm 1 mps 734 mmHg 70%
    12:00 +32°C° 0 mm 1 mps 733 mmHg 64%
    13:00 +32°C° 0 mm 1 mps 733 mmHg 64%
    14:00 +32°C° 0 mm 1 mps 732 mmHg 64%
    15:00 +32°C° 0 mm 1 mps 732 mmHg 64%
    16:00 +31°C° 1.9 mm 1 mps 732 mmHg 71%
    17:00 +29°C° 1.9 mm 1 mps 732 mmHg 79%
    18:00 +28°C° 1.9 mm 1 mps 732 mmHg 87%
    19:00 +27°C° 1.1 mm 1 mps 732 mmHg 88%
    20:00 +26°C° 1.1 mm 1 mps 733 mmHg 90%
    21:00 +25°C° 1.1 mm 1 mps 733 mmHg 92%
    22:00 +25°C° 0.2 mm 1 mps 733 mmHg 92%
    23:00 +25°C° 0.2 mm 1 mps 733 mmHg 91%

    Day after tomorrow, 17 September, Tuesday

    Time Temperature Precipitation Wind Pressure Humidity
    00:00 +23°C° 0.2 mm 0 mps 733 mmHg 91%
    01:00 +23°C° 0.4 mm 0 mps 733 mmHg 92%
    02:00 +23°C° 0.4 mm 0 mps 733 mmHg 92%
    03:00 +25°C° 0.4 mm 1 mps 732 mmHg 92%
    04:00 +23°C° 0.1 mm 0 mps 733 mmHg 92%
    05:00 +23°C° 0.1 mm 0 mps 733 mmHg 92%
    06:00 +23°C° 0.1 mm 0 mps 733 mmHg 92%
    07:00 +25°C° 0 mm 1 mps 733 mmHg 90%
    08:00 +26°C° 0 mm 1 mps 734 mmHg 88%
    09:00 +27°C° 0 mm 1 mps 734 mmHg 86%
    10:00 +28°C° 0.1 mm 2 mps 734 mmHg 81%
    11:00 +29°C° 0.1 mm 2 mps 733 mmHg 75%
    12:00 +31°C° 0.1 mm 2 mps 733 mmHg 70%
    13:00 +31°C° 0 mm 2 mps 732 mmHg 69%
    14:00 +31°C° 0 mm 1 mps 732 mmHg 67%
    15:00 +32°C° 0 mm 1 mps 731 mmHg 66%
    16:00 +31°C° 0 mm 1 mps 731 mmHg 71%
    17:00 +30°C° 0 mm 1 mps 731 mmHg 77%
    18:00 +29°C° 0 mm 1 mps 731 mmHg 82%
    19:00 +28°C° 2.4 mm 1 mps 731 mmHg 86%
    20:00 +27°C° 2.4 mm 1 mps 732 mmHg 89%
    21:00 +26°C° 2.4 mm 1 mps 732 mmHg 93%
    22:00 +26°C° 6 mm 1 mps 732 mmHg 95%
    23:00 +25°C° 6 mm 1 mps 733 mmHg 96%

    18 September, Wednesday

    Time Temperature Precipitation Wind Pressure Humidity
    00:00 +25°C° 6 mm 1 mps 733 mmHg 98%
    01:00 +25°C° 10.4 mm 1 mps 733 mmHg 98%
    02:00 +24°C° 10.4 mm 1 mps 732 mmHg 98%
    03:00 +24°C° 10.4 mm 1 mps 732 mmHg 98%
    04:00 +24°C° 1.3 mm 1 mps 732 mmHg 98%
    05:00 +24°C° 1.3 mm 1 mps 733 mmHg 98%
    06:00 +24°C° 1.3 mm 1 mps 733 mmHg 98%
    07:00 +24°C° 0.2 mm 2 mps 733 mmHg 97%
    08:00 +25°C° 0.2 mm 3 mps 734 mmHg 96%
    09:00 +25°C° 0.2 mm 3 mps 734 mmHg 94%
    10:00 +25°C° 0.2 mm 3 mps 734 mmHg 94%
    11:00 +25°C° 0.2 mm 3 mps 734 mmHg 94%
    12:00 +25°C° 0.2 mm 3 mps 734 mmHg 94%
    13:00 +25°C° 0 mm 3 mps 733 mmHg 93%
    14:00 +26°C° 0 mm 3 mps 733 mmHg 91%
    15:00 +26°C° 0 mm 3 mps 733 mmHg 90%
    16:00 +26°C° 0 mm 2 mps 733 mmHg 90%
    17:00 +25°C° 0 mm 2 mps 733 mmHg 90%
    18:00 +25°C° 0 mm 2 mps 733 mmHg 90%
    19:00 +24°C° 0 mm 1 mps 734 mmHg 91%
    20:00 +24°C° 0 mm 1 mps 734 mmHg 91%
    21:00 +23°C° 0 mm 1 mps 734 mmHg 92%
    22:00 +23°C° 0 mm 1 mps 734 mmHg 91%
    23:00 +23°C° 0 mm 1 mps 734 mmHg 91%

    19 September, Thursday

    Time Temperature Precipitation Wind Pressure Humidity
    00:00 +21°C° 0 mm 0 mps 734 mmHg 90%
    01:00 +23°C° 0 mm 1 mps 734 mmHg 91%
    02:00 +23°C° 0 mm 1 mps 734 mmHg 91%
    03:00 +23°C° 0 mm 1 mps 733 mmHg 91%
    04:00 +21°C° 0 mm 0 mps 734 mmHg 91%
    05:00 +21°C° 0 mm 0 mps 734 mmHg 91%
    06:00 +21°C° 0 mm 0 mps 734 mmHg 91%
    07:00 +22°C° 0 mm 0 mps 734 mmHg 86%
    08:00 +26°C° 0 mm 1 mps 735 mmHg 82%
    09:00 +27°C° 0 mm 1 mps 735 mmHg 77%
    10:00 +29°C° 0 mm 1 mps 734 mmHg 72%
    11:00 +30°C° 0 mm 1 mps 734 mmHg 68%
    12:00 +31°C° 0 mm 1 mps 734 mmHg 63%
    13:00 +32°C° 0 mm 1 mps 733 mmHg 62%
    14:00 +32°C° 0 mm 1 mps 733 mmHg 61%
    15:00 +32°C° 0 mm 1 mps 732 mmHg 60%
    16:00 +31°C° 0.6 mm 1 mps 732 mmHg 67%
    17:00 +29°C° 0.6 mm 1 mps 732 mmHg 75%
    18:00 +28°C° 0.6 mm 1 mps 733 mmHg 83%
    19:00 +27°C° 0.1 mm 1 mps 733 mmHg 84%
    20:00 +27°C° 0.1 mm 1 mps 733 mmHg 86%
    21:00 +24°C° 0.1 mm 0 mps 733 mmHg 87%
    22:00 +24°C° 0 mm 0 mps 734 mmHg 88%
    23:00 +24°C° 0 mm 0 mps 734 mmHg 88%

    20 September, Friday

    Time Temperature Precipitation Wind Pressure Humidity
    00:00 +23°C° 0 mm 0 mps 734 mmHg 88%
    01:00 +23°C° 0 mm 0 mps 733 mmHg 88%
    02:00 +23°C° 0 mm 0 mps 733 mmHg 89%
    03:00 +23°C° 0 mm 0 mps 733 mmHg 89%
    04:00 +23°C° 0 mm 0 mps 733 mmHg 90%
    05:00 +23°C° 0 mm 0 mps 733 mmHg 90%
    06:00 +22°C° 0 mm 0 mps 733 mmHg 91%
    07:00 +26°C° 0 mm 1 mps 734 mmHg 88%
    08:00 +27°C° 0 mm 1 mps 734 mmHg 85%
    09:00 +28°C° 0 mm 2 mps 734 mmHg 82%
    10:00 +29°C° 0 mm 2 mps 734 mmHg 76%
    11:00 +31°C° 0 mm 2 mps 734 mmHg 69%
    12:00 +32°C° 0 mm 2 mps 734 mmHg 63%
    13:00 +32°C° 0 mm 2 mps 733 mmHg 63%
    14:00 +32°C° 0 mm 2 mps 732 mmHg 63%
    15:00 +32°C° 0 mm 2 mps 732 mmHg 63%
    16:00 +31°C° 0 mm 1 mps 732 mmHg 68%
    17:00 +30°C° 0 mm 1 mps 732 mmHg 73%
    18:00 +29°C° 0 mm 1 mps 732 mmHg 78%
    19:00 +26°C° 0 mm 0 mps 732 mmHg 80%
    20:00 +26°C° 0 mm 0 mps 733 mmHg 82%
    21:00 +25°C° 0 mm 0 mps 733 mmHg 84%
    22:00 +25°C° 0 mm 0 mps 733 mmHg 85%
    23:00 +24°C° 0 mm 0 mps 733 mmHg 86%
    Show more